Regional Weather Roundup
Issued by NWS

Home | Current Version | Previous Version | Graphics & Text | Print | Product List | Glossary On
Versions: 1 2 3 4 5 6 7 8 9 10 11 12 13 14 15 16 17 18 19 20 21 22 23 24 25 26 27 28 29 30 31 32 33 34 35 36 37 38 39 40 41 42 43 44 45 46 47 48 49 50
000
ASUS43 KLOT 261400
RWRIL

ILLINOIS REGIONAL WEATHER ROUNDUP
NATIONAL WEATHER SERVICE CHICAGO/ROMEOVILLE IL
900 AM CDT SAT JUL 26 2014

NOTE: "FAIR" INDICATES FEW OR NO CLOUDS BELOW 12,000 FEET WITH NO
SIGNIFICANT WEATHER AND/OR OBSTRUCTIONS TO VISIBILITY.

* THESE STATIONS ARE NOT UNDER NWS QUALITY CONTROL. THEY ALSO MAY NOT
  REPORT WEATHER SUCH AS PRECIPITATION OR FOG.

ILZ001-002-007-009-015-016-024-261500-
NORTHWEST ILLINOIS

CITY           SKY/WX    TMP DP  RH WIND       PRES   REMARKS
MOLINE         CLOUDY    71  64  78 CALM      29.85R
STERLING*      MOSUNNY   73  64  73 W3        29.84R
$$

ILZ003-004-008-010-011-017-018-261500-
NORTH CENTRAL ILLINOIS

CITY           SKY/WX    TMP DP  RH WIND       PRES   REMARKS
ROCKFORD       PTSUNNY   72  63  73 CALM      29.85F
$$

ILZ005-006-012>014-019>023-261500-
NORTHEAST ILLINOIS

CITY           SKY/WX    TMP DP  RH WIND       PRES   REMARKS
CHICAGO-OHARE  CLOUDY    72  61  68 SW8       29.85S
CHICAGO-MIDWAY CLOUDY    73  64  73 S7        29.85S
AURORA         MOSUNNY   72  64  76 S3        29.85S
WAUKEGAN       CLOUDY    68  61  78 E3        29.84S
DUPAGE AIRPORT CLOUDY    73  64  73 SW6       29.84S
WHEELING       CLOUDY    73  63  70 VRB3      29.86F
NORTHERLY ISL    N/A     71  62  73 S3          N/A
$$

LMZ740>746-261500-
SOUTHERN LAKE MICHIGAN

STATION/POSITION SKY/WX   TEMP    WIND        PRES    VSBY  WAVE
                          AIR SEA DIR/SP/G                  HT/PER
                          (F)     (DEG/KT/KT) (MB)    (MI)  (FT/S)
SOUTHERN BUOY              63 61  150/  8/  8 1011.2F         1
WAUKEGAN HARBOR            67     170/  2/  2   N/A
HARRISON CRIB              68     170/  8/ 10   N/A
BURNHAM HARBOR             71     260/  5/  8   N/A
CALUMET HARBOR             70     200/  5/  8 1009.7F
BURNS HARBOR               69     190/  7/ 10 1011.9S
MICHIGAN CITY              68     170/  8/ 12   N/A
MICHIGAN CITY 6N           69 68  190/  6/ 10   N/A           1
ST. JOSEPH                 67 66  140/  2/  4   N/A           1
$$

ILZ025>027-034>036-040-047-049-050-058-095>099-261500-
WEST-CENTRAL ILLINOIS

CITY           SKY/WX    TMP DP  RH WIND       PRES   REMARKS
QUINCY         PTSUNNY   79  72  79 SW12      29.84R HX  82
$$

ILZ028>032-037-038-041>044-048-051>054-059>061-261500-
CENTRAL ILLINOIS

CITY           SKY/WX    TMP DP  RH WIND       PRES   REMARKS
DECATUR        SUNNY     76  69  79 SW16      29.87S
PEORIA         PTSUNNY   76  68  76 SW8       29.82S
SPRINGFIELD    SUNNY     77  70  79 SW10G20   29.85S
TAYLORVILLE    NOT AVBL
$$

ILZ033-039-045-046-055>057-062-063-261500-
EAST-CENTRAL ILLINOIS

CITY           SKY/WX    TMP DP  RH WIND       PRES   REMARKS
CHAMPAIGN      SUNNY     74  68  81 S7        29.88F
MATTOON        PTSUNNY   73  68  84 S9        29.89S
$$

ILZ079-100>102-261500-
SOUTHWEST ILLINOIS

CITY           SKY/WX    TMP DP  RH WIND       PRES   REMARKS
ALTON          SUNNY     75  73  94 S9        29.89F
BELLEVILLE     SUNNY     76  71  85 E5        29.89F
CAHOKIA*       SUNNY     79  71  76 SW3       29.90R HX  82
$$

ILZ064>066-069>071-074>076-080>082-084>086-088>090-092>094-261500-
SOUTH-CENTRAL ILLINOIS

CITY           SKY/WX    TMP DP  RH WIND       PRES   REMARKS
CARBONDALE     SUNNY     76  69  79 S13       29.94S
MT. VERNON     SUNNY     75  66  73 SW13      29.94S
$$

ILZ067-068-072-073-078-083-087-091-261500-
SOUTHEAST ILLINOIS

CITY           SKY/WX    TMP DP  RH WIND       PRES   REMARKS
LAWRENCEVILLE  CLOUDY    75  67  76 S10       29.92F
$$

ABBREVIATIONS USED IN REMARKS
   TC - TEMPERATURE IN CELSIUS
  WCI - WIND CHILL INDEX
   HX - HEAT INDEX
  VSB - VISIBILITY
$$



USA.gov is the U.S. government's official web portal to all federal, state and local government web resources and services.